Flag for U.S.A. Weather past 2 weeks in Dover, Delaware, U.S.A.

Now
52 °F

Clear.


Feels Like: 50 °F
Forecast: 51 / 78 °F
Wind: 6 mph from South

Location: Dover Air Force Base

Current Time: May 24, 2015 at 3:14:00 AM

Latest Report: May 24, 2015 at 2:58 AM


Visibility: 10 mi

Pressure: 30.36 "Hg

Humidity: 100%

Dew point: 52 °F

Location of DoverLocation

Historic Weather in Dover — Graph

°F

Dover temperature yesterday

Maximum temperature yesterday: 70 °F (at 4:58 PM)
Minimum temperature yesterday: 50 °F (at 5:58 AM)
Average temperature yesterday: 60 °F

Past Weeks' High & Low Weather Summary

 TemperatureHumidityPressure
High87 °F (May 12, 2:58 PM)100% (May 9, 2:03 AM)30.44 "Hg (May 9, 2:03 AM)
Low47 °F (May 14, 5:58 AM)29% (May 23, 2:58 PM)29.81 "Hg (May 12, 4:58 PM)
Average66 °F77%30.09 "Hg
* Reported May 9 2:03 AM — May 24 1:58 AM, Dover, Weather by CustomWeather, © 2015

Note: Actual official high and low records may vary slightly from our data, if they occured in-between our weather recording intervals... More about our weather records

Advertising

Dover weather history for previous 24 hours

 ConditionsComfort  
Time TempWeatherWind HumidityBarometerVisibility
1:58 AM
Sun, May 24
51 °FClear.6 mph100%30.36 "Hg10 mi
12:58 AM52 °FClear.6 mph97%30.37 "Hg10 mi
11:58 PM
Sat, May 23
52 °FClear.6 mph94%30.37 "Hg10 mi
10:58 PM54 °FClear.7 mph88%30.38 "Hg10 mi
9:58 PM55 °FClear.7 mph83%30.37 "Hg10 mi
8:58 PM58 °FSunny.5 mph61%30.36 "Hg10 mi
7:58 PM64 °FSunny.2 mph39%30.36 "Hg10 mi
6:58 PM67 °FSunny.7 mph30%30.36 "Hg10 mi
5:58 PM69 °FSunny.10 mph30%30.37 "Hg10 mi
4:58 PM70 °FSunny.5 mph31%30.37 "Hg10 mi
3:58 PM69 °FSunny.8 mph29%30.38 "Hg10 mi
2:58 PM68 °FSunny.2 mph29%30.40 "Hg10 mi
1:58 PM66 °FSunny.2 mph34%30.40 "Hg10 mi
12:58 PM65 °FSunny.5 mph33%30.42 "Hg10 mi
11:58 AM61 °FSunny.1 mph41%30.44 "Hg10 mi
10:58 AM61 °FSunny.10 mph42%30.44 "Hg10 mi
9:58 AM59 °FSunny.9 mph49%30.43 "Hg10 mi
8:58 AM57 °FSunny.8 mph51%30.42 "Hg10 mi
7:58 AM55 °FSunny.8 mph45%30.40 "Hg10 mi
6:58 AM53 °FSunny.9 mph53%30.37 "Hg10 mi
5:58 AM50 °FClear.3 mph61%30.33 "Hg10 mi
4:58 AM51 °FClear.7 mph55%30.29 "Hg10 mi
3:58 AM55 °FClear.8 mph46%30.27 "Hg10 mi
Weather by CustomWeather, © 2015

See weather overviewHow to use our weather pages